Location: B
(0.0000°N, 0.0000°E)
Time: 20:01:03
(UTC+02:00)

Amateur Radio Satellites - All Passes

Search period start: 26 July 2016 19:31
Search period end: 27 July 2016 19:31
Location: B, 0.0000°N, 0.0000°E

Satellite Date Start Highest point End Downlink Frequencies (MHz)
Time Altitude Azimuth
NOAA 15 26 Jul 19:31:07 19:36:18 58° 77° (ENE) 19:41:26 137.62
ISS 26 Jul 19:33:34 19:35:39 16° 126° (SE) 19:37:44 145.825
NOAA 18 26 Jul 19:35:28 19:40:41 44° 77° (ENE) 19:45:53 137.9125
LilacSat-2 26 Jul 19:45:06 19:48:53 58° 79° (E) 19:52:39 437.200
JUGNU 26 Jul 20:02:44 20:06:52 19° 165° (SSE) 20:11:01 437.505
DOVE 4 26 Jul 20:22:15 20:26:10 42° 78° (ENE) 20:30:06 437.250
Cubesat XI-IV 26 Jul 20:23:30 20:28:41 50° 257° (WSW) 20:33:51 437.490
STRAND 1 26 Jul 20:24:12 20:28:44 33° 103° (ESE) 20:33:16 437.568
GOMX 1 26 Jul 20:24:30 20:28:39 54° 259° (WSW) 20:32:41 467.674
PCSat 26 Jul 20:29:59 20:34:16 24° 290° (WNW) 20:38:33 145.827
SRMSAT 26 Jul 20:30:23 20:31:51 11° 174° (S) 20:33:19 437.500
AIST 2 26 Jul 20:33:03 20:36:23 24° 112° (ESE) 20:39:42 435.215
CANX-2 26 Jul 20:39:22 20:41:10 12° 78° (ENE) 20:42:57 2200.000
CINEMA 3 26 Jul 20:41:54 20:44:18 15° 77° (ENE) 20:46:43 145.822/145.860
CUTE-I 26 Jul 20:48:15 20:52:37 26° 257° (WSW) 20:56:59 437.470
CUTE 1.7 + AOD 2 26 Jul 20:52:06 20:54:46 16° 78° (ENE) 20:57:26 437.475
SO-50 26 Jul 20:54:35 20:58:17 26° 248° (WSW) 21:01:58 436.795
O/OREOS (USA 219) 26 Jul 21:07:33 21:12:03 82° 103° (ESE) 21:16:29 437.305
ISS 26 Jul 21:09:58 21:11:53 15° 306° (NW) 21:13:49 145.825
HO-68 26 Jul 21:18:52 21:25:48 53° 76° (ENE) 21:32:43 435.675
NOAA 18 26 Jul 21:18:53 21:21:02 12° 256° (WSW) 21:23:12 137.9125
RS-15 26 Jul 21:30:30 21:34:58 13° 247° (WSW) 21:39:24 29.354- 29.394
SEEDS 26 Jul 21:31:36 21:35:35 39° 79° (ENE) 21:39:32 437.485
UWE-3 26 Jul 21:36:24 21:37:01 10° 77° (ENE) 21:37:38 435.000/436.395/437.385
COMPASS 1 26 Jul 21:45:05 21:49:00 38° 79° (E) 21:52:55 437.405
JUGNU 26 Jul 21:50:33 21:56:15 45° 160° (SSE) 22:01:58 437.505
CUBEBUG 2 26 Jul 21:53:18 21:57:12 32° 78° (ENE) 22:01:12 437.445
YUBILEINY 26 Jul 22:04:59 22:12:40 34° 87° (E) 22:20:17 435.215
STRAND 1 26 Jul 22:04:59 22:07:38 14° 283° (WNW) 22:10:17 437.568
AIST 2 26 Jul 22:12:57 22:14:36 12° 292° (WNW) 22:16:16 435.215
CANX-2 26 Jul 22:13:11 22:16:45 26° 258° (WSW) 22:20:19 2200.000
AAUSAT CUBESAT 2 26 Jul 22:13:59 22:18:11 80° 79° (E) 22:22:20 437.432
SRMSAT 26 Jul 22:17:48 22:21:58 19° 165° (SSE) 22:26:07 437.500
CINEMA 3 26 Jul 22:17:56 22:21:09 21° 259° (W) 22:24:27 145.822/145.860
Oscar 11 26 Jul 22:19:16 22:22:57 27° 78° (ENE) 22:26:36 145.826/435.025
CUTE 1.7 + AOD 2 26 Jul 22:27:11 22:30:20 20° 258° (WSW) 22:33:29 437.475
PRISM 26 Jul 22:36:11 22:40:09 48° 282° (WNW) 22:44:10 437.425
DELFI C3 26 Jul 22:44:52 22:47:49 20° 79° (ENE) 22:50:45 145.870
Cosmos 2491 26 Jul 22:59:01 23:07:47 81° 272° (W) 23:16:30 435.465 / 435.565
HUMSAT D 26 Jul 22:59:28 23:01:22 13° 78° (ENE) 23:03:16 437.325/437.525
HO-68 26 Jul 23:09:02 23:13:09 16° 255° (WSW) 23:17:16 435.675
UWE-3 26 Jul 23:09:14 23:13:09 33° 259° (W) 23:17:11 435.000/436.395/437.385
FUNcube-1 26 Jul 23:10:46 23:15:04 60° 258° (WSW) 23:19:28 145.935
ZACube-1 26 Jul 23:11:17 23:15:33 53° 258° (WSW) 23:19:55 437.345
TIGRISAT 26 Jul 23:13:17 23:16:12 17° 101° (ESE) 23:19:06 435.000
UNISAT 6 26 Jul 23:28:21 23:32:18 31° 101° (ESE) 23:36:11 437.425
CUBEBUG 2 26 Jul 23:33:01 23:33:36 10° 259° (W) 23:34:10 437.445
JUGNU 26 Jul 23:39:23 23:45:21 67° 339° (NNW) 23:51:18 437.505
M-CUBED/EXP-1 PRIME 26 Jul 23:48:07 23:51:20 50° 255° (WSW) 23:54:44 437.505
Oscar 11 26 Jul 23:57:00 23:58:48 12° 258° (WSW) 00:00:35 145.826/435.025
YUBILEINY 27 Jul 00:01:42 00:09:03 30° 267° (W) 00:16:25 435.215
SRMSAT 27 Jul 00:05:50 00:11:32 44° 160° (SSE) 00:17:13 437.500
ANTELSAT 27 Jul 00:06:19 00:10:47 74° 281° (WNW) 00:15:10 437.575/2403.000
AUBIESAT-1 27 Jul 00:15:19 00:18:06 24° 256° (WSW) 00:21:00 437.475
Cosmos 2504 27 Jul 00:17:28 00:25:01 82° 267° (W) 00:32:15 435.465 / 435.565
DELFI C3 27 Jul 00:20:19 00:22:24 14° 258° (WSW) 00:24:27 145.870
AISAT 27 Jul 00:28:21 00:30:04 12° 78° (ENE) 00:31:47 437.250
HUMSAT D 27 Jul 00:33:11 00:36:43 25° 258° (WSW) 00:40:15 437.325/437.525
NANOSAT C BR1 27 Jul 00:48:15 00:52:06 34° 102° (ESE) 00:55:58 145.865
TIGRISAT 27 Jul 00:49:21 00:52:38 20° 282° (WNW) 00:55:52 435.000
DUCHIFAT 1 27 Jul 00:52:51 00:56:45 36° 102° (ESE) 01:00:39 145.980
ESTCUBE 1 27 Jul 00:57:25 01:01:55 67° 79° (ENE) 01:06:22 437.505/2401.250
UNISAT 6 27 Jul 01:07:30 01:08:43 11° 283° (WNW) 01:09:55 437.425
QB50P1 27 Jul 01:09:50 01:14:05 81° 102° (ESE) 01:18:20 145.935-145.965
BUGSAT 1 27 Jul 01:10:59 01:14:20 23° 102° (ESE) 01:17:42 437.445
POPSAT HIP 1 27 Jul 01:16:12 01:20:28 83° 282° (WNW) 01:24:43 437.405
VELOX 1 27 Jul 01:17:14 01:21:35 61° 78° (ENE) 01:25:53 145.980
SPROUT 27 Jul 01:18:49 01:22:08 22° 78° (ENE) 01:25:28 437.525
CUBEBUG 1 27 Jul 01:20:20 01:24:40 83° 78° (ENE) 01:28:57 437.445
JUGNU 27 Jul 01:29:40 01:34:34 26° 342° (NNW) 01:39:29 437.505
AIST 1 27 Jul 01:31:11 01:33:02 12° 86° (E) 01:34:53
QB50P2 27 Jul 01:37:18 01:41:11 36° 282° (WNW) 01:45:06 145.880/145.840
JAS-2 27 Jul 01:39:48 01:45:25 45° 104° (ESE) 01:51:46 435.910
POLYITAN 1 27 Jul 01:39:58 01:43:51 35° 282° (WNW) 01:47:44 437.675
50 SAT 27 Jul 01:52:44 01:55:55 28° 258° (WSW) 01:59:07 437.505
SRMSAT 27 Jul 01:54:49 02:00:47 68° 339° (NNW) 02:06:42 437.500
AISAT 27 Jul 02:02:33 02:06:17 27° 258° (WSW) 02:09:59 437.250
PHONESAT 2.4 27 Jul 02:03:29 02:05:18 15° 42° (NE) 02:07:07 2401.200-2431.200
DX 1 27 Jul 02:04:16 02:08:20 40° 258° (WSW) 02:12:23 434.975-435.025
TISAT 1 27 Jul 02:16:42 02:20:00 23° 78° (ENE) 02:23:18 437.305
UKube-1 27 Jul 02:19:21 02:23:14 33° 258° (WSW) 02:27:07 .
AO-85 27 Jul 02:29:24 02:32:40 27° 248° (WSW) 02:35:55 145.980
Gurwin Techsat 1B 27 Jul 02:37:59 02:40:07 12° 103° (ESE) 02:42:15 435.225
BUGSAT 1 27 Jul 02:47:20 02:49:26 14° 282° (WNW) 02:51:33 437.445
SPROUT 27 Jul 02:55:35 02:57:49 14° 258° (WSW) 03:00:03 437.525
Oscar 19 27 Jul 02:59:04 03:04:13 71° 102° (ESE) 03:09:25 437.125/150
AIST 1 27 Jul 03:06:47 03:10:20 24° 266° (W) 03:13:54
JUGNU 27 Jul 03:21:43 03:24:18 13° 350° (N) 03:26:51 437.505
JAS-2 27 Jul 03:27:14 03:30:25 15° 280° (W) 03:33:46 435.910
SWISSCUBE 27 Jul 03:34:11 03:38:40 39° 77° (ENE) 03:43:06 437.505
PHONESAT 2.4 27 Jul 03:39:14 03:41:40 22° 223° (SW) 03:44:07 2401.200-2431.200
CUSAT 1 27 Jul 03:40:52 03:44:57 18° 101° (ESE) 03:48:25 437.405
SRMSAT 27 Jul 03:45:15 03:50:08 26° 342° (NNW) 03:55:00 437.500
TISAT 1 27 Jul 03:53:26 03:55:23 13° 258° (WSW) 03:57:20 437.305
BEESAT 27 Jul 03:55:20 04:00:06 66° 78° (ENE) 04:04:50 436.000
DANDE 27 Jul 03:58:28 04:01:09 12° 101° (E) 04:03:40 436.750
GONETS M04 27 Jul 04:08:07 04:16:41 55° 87° (E) 04:25:14
Gurwin Techsat 1B 27 Jul 04:14:49 04:19:46 41° 282° (WNW) 04:24:44 435.225
ITUPSAT 1 27 Jul 04:18:02 04:22:49 64° 258° (WSW) 04:27:33 437.325
ITAMSAT 1 27 Jul 04:32:08 04:37:17 79° 103° (ESE) 04:42:28 435.822/435.867
MOZHAYETS 4 27 Jul 04:42:28 04:45:41 19° 78° (ENE) 04:48:53
Cosmos 2499 27 Jul 05:11:18 05:18:31 71° 267° (W) 05:25:32 435.465 / 435.565
SWISSCUBE 27 Jul 05:15:18 05:16:09 10° 257° (WSW) 05:17:01 437.505
CUSAT 1 27 Jul 05:21:34 05:26:53 29° 270° (W) 05:31:09 437.405
AO-7 27 Jul 05:21:58 05:30:17 84° 106° (ESE) 05:38:36 29.400- 29.500
DANDE 27 Jul 05:36:34 05:44:17 65° 273° (W) 05:50:22 436.750
SRMSAT 27 Jul 05:37:28 05:39:59 13° 350° (N) 05:42:30 437.500
KKS-1 27 Jul 05:47:16 05:51:37 57° 258° (WSW) 05:55:57 437.445
HORYU 2 27 Jul 05:49:02 05:51:55 17° 103° (ESE) 05:54:48 437.375
CUBESAT XI-V 27 Jul 06:01:19 06:03:44 14° 78° (ENE) 06:06:08 437.345
GONETS M04 27 Jul 06:07:34 06:13:06 18° 267° (W) 06:18:40
MOZHAYETS 4 27 Jul 06:19:05 06:22:34 21° 258° (WSW) 06:26:03
STARS 27 Jul 06:27:30 06:31:33 38° 258° (WSW) 06:35:35 437.465
BEESAT 3 27 Jul 06:28:08 06:32:03 80° 68° (ENE) 06:35:58 437.485
BEESAT 2 27 Jul 06:33:34 06:37:15 37° 68° (ENE) 06:40:56 435.950
RS-15 27 Jul 06:52:48 07:03:44 76° 111° (ESE) 07:15:10 29.354- 29.394
JUGNU 27 Jul 07:01:38 07:04:35 14° 11° (N) 07:07:32 437.505
GOMX 1 27 Jul 07:10:32 07:14:05 18° 103° (ESE) 07:17:41 467.674
AO-7 27 Jul 07:21:37 07:22:33 10° 288° (WNW) 07:23:29 29.400- 29.500
PCSat 27 Jul 07:21:56 07:27:18 70° 71° (ENE) 07:32:40 145.827
Cubesat XI-IV 27 Jul 07:23:43 07:28:22 31° 103° (ESE) 07:33:01 437.490
HORYU 2 27 Jul 07:24:55 07:28:12 20° 282° (WNW) 07:31:30 437.375
SO-50 27 Jul 07:26:36 07:30:39 27° 112° (ESE) 07:34:44 436.795
CUBESAT XI-V 27 Jul 07:36:54 07:40:51 27° 258° (WSW) 07:44:46 437.345
LilacSat-2 27 Jul 07:39:45 07:43:25 46° 101° (E) 07:47:04 437.200
BRITE-PL 27 Jul 07:42:03 07:47:21 76° 281° (WNW) 07:52:59 437.365/2234.400
CUTE-I 27 Jul 07:46:55 07:52:08 61° 103° (ESE) 07:57:22 437.470
NOAA 15 27 Jul 08:08:26 08:13:31 50° 283° (WNW) 08:18:39 137.62
NOAA 18 27 Jul 08:19:45 08:25:07 57° 283° (WNW) 08:30:30 137.9125
AIST 2 27 Jul 08:31:03 08:34:41 30° 68° (ENE) 08:38:20 435.215
DOVE 4 27 Jul 08:41:32 08:46:51 89° 99° (E) 08:52:08 437.250
ISS 27 Jul 08:42:41 08:45:23 24° 234° (SW) 08:48:05 145.825
CANX-2 27 Jul 08:45:10 08:47:34 15° 102° (ESE) 08:49:57 2200.000
GOMX 1 27 Jul 08:47:04 08:51:49 32° 282° (WNW) 08:56:41 467.674
JUGNU 27 Jul 08:49:08 08:54:11 29° 18° (NNE) 08:59:14 437.505
STRAND 1 27 Jul 08:56:14 09:01:24 85° 76° (ENE) 09:06:33 437.568
CINEMA 3 27 Jul 08:56:47 09:01:00 29° 101° (E) 09:05:06 145.822/145.860
CUTE 1.7 + AOD 2 27 Jul 08:58:02 09:01:03 19° 102° (ESE) 09:04:04 437.475
Cubesat XI-IV 27 Jul 09:04:52 09:08:10 17° 283° (WNW) 09:11:27 437.490
SO-50 27 Jul 09:07:48 09:10:54 17° 293° (WNW) 09:13:59 436.795
RS-15 27 Jul 09:09:58 09:16:01 16° 294° (WNW) 09:22:16 29.354- 29.394
HO-68 27 Jul 09:10:37 09:17:21 44° 105° (ESE) 09:24:04 435.675
SRMSAT 27 Jul 09:17:40 09:20:35 14° 11° (NNE) 09:23:30 437.500
O/OREOS (USA 219) 27 Jul 09:18:25 09:22:53 57° 256° (WSW) 09:27:24 437.305
SEEDS 27 Jul 09:36:47 09:40:46 46° 102° (ESE) 09:44:46 437.485
Cosmos 2491 27 Jul 09:38:16 09:44:56 24° 87° (E) 09:51:36 435.465 / 435.565
UWE-3 27 Jul 09:45:57 09:48:25 15° 101° (E) 09:50:51 435.000/436.395/437.385
COMPASS 1 27 Jul 09:49:11 09:53:06 43° 102° (ESE) 09:57:03 437.405
CUBEBUG 2 27 Jul 10:05:36 10:10:00 50° 102° (ESE) 10:14:14 437.445
AIST 2 27 Jul 10:12:45 10:12:56 10° 248° (WSW) 10:13:06 435.215
AAUSAT CUBESAT 2 27 Jul 10:17:35 10:21:41 90° 82° (E) 10:25:49 437.432
CANX-2 27 Jul 10:20:02 10:23:09 20° 281° (WNW) 10:26:17 2200.000
Oscar 11 27 Jul 10:27:40 10:31:35 35° 102° (ESE) 10:35:30 145.826/435.025
CUTE 1.7 + AOD 2 27 Jul 10:34:05 10:36:37 16° 282° (WNW) 10:39:10 437.475
CINEMA 3 27 Jul 10:35:00 10:37:49 15° 283° (WNW) 10:40:35 145.822/145.860
YUBILEINY 27 Jul 10:37:27 10:46:06 67° 93° (E) 10:54:46 435.215
JUGNU 27 Jul 10:37:27 10:43:19 79° 21° (NNE) 10:49:11 437.505
Cosmos 2504 27 Jul 10:38:21 10:42:39 15° 92° (E) 10:47:01 435.465 / 435.565
PRISM 27 Jul 10:39:11 10:43:06 43° 258° (WSW) 10:46:59 437.425
AUBIESAT-1 27 Jul 10:42:11 10:43:43 12° 105° (ESE) 10:45:14 437.475
DELFI C3 27 Jul 10:43:44 10:46:31 19° 102° (ESE) 10:49:19 145.870
HO-68 27 Jul 10:59:50 11:04:43 20° 285° (WNW) 11:09:37 435.675
HUMSAT D 27 Jul 11:04:03 11:06:10 14° 102° (ESE) 11:08:18 437.325/437.525
SRMSAT 27 Jul 11:05:16 11:10:21 29° 19° (NNE) 11:15:26 437.500
FUNcube-1 27 Jul 11:20:46 11:24:50 41° 282° (WNW) 11:28:50 145.935
UWE-3 27 Jul 11:21:10 11:24:38 23° 282° (WNW) 11:28:02 435.000/436.395/437.385
ZACube-1 27 Jul 11:21:40 11:25:39 37° 282° (WNW) 11:29:35 437.345
TIGRISAT 27 Jul 11:25:16 11:29:02 26° 78° (ENE) 11:32:50 435.000
Cosmos 2491 27 Jul 11:33:15 11:41:21 43° 267° (W) 11:49:33 435.465 / 435.565
UNISAT 6 27 Jul 11:40:59 11:45:18 48° 78° (ENE) 11:49:42 437.425
M-CUBED/EXP-1 PRIME 27 Jul 11:47:10 11:51:44 60° 286° (WNW) 11:56:06 437.505
QB50P2 27 Jul 12:11:13 12:12:01 10° 78° (ENE) 12:12:48 145.880/145.840
POLYITAN 1 27 Jul 12:13:36 12:14:39 11° 78° (ENE) 12:15:42 437.675
AUBIESAT-1 27 Jul 12:13:53 12:17:57 33° 286° (WNW) 12:21:52 437.475
DELFI C3 27 Jul 12:19:01 12:21:07 14° 281° (WNW) 12:23:13 145.870
ANTELSAT 27 Jul 12:19:26 12:23:45 47° 258° (WSW) 12:28:09 437.575/2403.000
JUGNU 27 Jul 12:27:01 12:32:23 37° 200° (SSW) 12:37:46 437.505
Cosmos 2504 27 Jul 12:27:09 12:35:31 66° 273° (W) 12:44:17 435.465 / 435.565
HUMSAT D 27 Jul 12:38:29 12:41:32 20° 282° (WNW) 12:44:35 437.325/437.525
YUBILEINY 27 Jul 12:38:36 12:42:30 14° 273° (W) 12:46:27 435.215
AISAT 27 Jul 12:38:37 12:41:41 18° 102° (ESE) 12:44:45 437.250
DX 1 27 Jul 12:40:41 12:41:58 11° 103° (ESE) 12:43:15 434.975-435.025
SRMSAT 27 Jul 12:53:43 12:59:39 79° 22° (NNE) 13:05:37 437.500
NANOSAT C BR1 27 Jul 12:53:56 12:57:54 41° 79° (ENE) 13:01:52 145.865
UKube-1 27 Jul 12:53:58 12:55:55 13° 103° (ESE) 12:57:52 .
DUCHIFAT 1 27 Jul 12:58:15 13:02:15 44° 78° (ENE) 13:06:15 145.980
AO-85 27 Jul 13:00:38 13:05:01 26° 111° (ESE) 13:09:28 145.980
TIGRISAT 27 Jul 13:03:12 13:05:28 14° 259° (WSW) 13:07:45 435.000
ESTCUBE 1 27 Jul 13:11:24 13:15:53 78° 282° (WNW) 13:20:24 437.505/2401.250
BUGSAT 1 27 Jul 13:14:08 13:17:24 24° 78° (ENE) 13:20:40 437.445
JAS-2 27 Jul 13:14:34 13:20:10 26° 79° (E) 13:25:14 435.910
QB50P1 27 Jul 13:16:00 13:20:13 82° 258° (WSW) 13:24:26 145.935-145.965
POPSAT HIP 1 27 Jul 13:22:28 13:26:39 67° 258° (WSW) 13:30:50 437.405
SPROUT 27 Jul 13:25:47 13:29:29 29° 102° (ESE) 13:33:12 437.525
VELOX 1 27 Jul 13:28:38 13:33:06 90° 103° (ESE) 13:37:35 145.980
CUBEBUG 1 27 Jul 13:30:14 13:34:37 70° 282° (WNW) 13:39:03 437.445
AIST 1 27 Jul 13:36:57 13:39:43 17° 94° (E) 13:42:28
50 SAT 27 Jul 13:42:04 13:45:25 40° 282° (WNW) 13:48:50 437.505
QB50P2 27 Jul 13:43:53 13:47:33 29° 258° (WSW) 13:51:12 145.880/145.840
POLYITAN 1 27 Jul 13:46:33 13:50:11 28° 258° (WSW) 13:53:49 437.675
Oscar 19 27 Jul 13:58:08 13:58:58 10° 77° (ENE) 13:59:48 437.125/150
DX 1 27 Jul 14:14:02 14:17:52 30° 282° (WNW) 14:21:44 434.975-435.025
AISAT 27 Jul 14:14:39 14:17:52 20° 282° (WNW) 14:21:07 437.250
JUGNU 27 Jul 14:18:15 14:21:50 16° 193° (SSW) 14:25:25 437.505
TISAT 1 27 Jul 14:21:38 14:25:15 27° 102° (ESE) 14:28:51 437.305
UKube-1 27 Jul 14:28:06 14:31:40 26° 282° (WNW) 14:35:17 .
AO-85 27 Jul 14:41:10 14:45:18 22° 292° (WNW) 14:49:27 145.980
SRMSAT 27 Jul 14:43:25 14:48:54 38° 200° (SSW) 14:54:25 437.500
BUGSAT 1 27 Jul 14:51:17 14:52:31 11° 258° (WSW) 14:53:44 437.445
JAS-2 27 Jul 14:58:54 15:04:55 30° 255° (WSW) 15:10:24 435.910
SPROUT 27 Jul 15:03:56 15:05:09 11° 282° (WNW) 15:06:23 437.525
ITUPSAT 1 27 Jul 15:05:23 15:07:28 13° 103° (ESE) 15:09:32 437.325
PHONESAT 2.4 27 Jul 15:06:01 15:08:53 39° 317° (NW) 15:11:46 2401.200-2431.200
Gurwin Techsat 1B 27 Jul 15:13:46 15:18:37 36° 78° (ENE) 15:23:27 435.225
AIST 1 27 Jul 15:14:19 15:17:02 16° 274° (W) 15:19:43
Cosmos 2499 27 Jul 15:29:45 15:34:58 17° 92° (E) 15:40:13 435.465 / 435.565
ITAMSAT 1 27 Jul 15:30:50 15:33:09 13° 77° (ENE) 15:35:27 435.822/435.867
Oscar 19 27 Jul 15:33:09 15:38:01 44° 258° (WSW) 15:42:51 437.125/150
SWISSCUBE 27 Jul 15:55:49 16:00:32 77° 103° (ESE) 16:05:17 437.505
TISAT 1 27 Jul 15:59:21 16:00:37 11° 282° (WNW) 16:01:54 437.305
AO-7 27 Jul 15:59:32 16:04:19 17° 73° (ENE) 16:09:05 29.400- 29.500
CUSAT 1 27 Jul 16:15:20 16:19:27 45° 88° (E) 16:24:54 437.405
BEESAT 27 Jul 16:17:13 16:21:54 63° 282° (WNW) 16:26:37 436.000
SRMSAT 27 Jul 16:34:45 16:38:32 17° 194° (SSW) 16:42:20 437.500
DANDE 27 Jul 16:39:40 16:42:11 18° 91° (E) 16:45:10 436.750
ITUPSAT 1 27 Jul 16:40:50 16:45:00 32° 282° (WNW) 16:49:13 437.325
GONETS M04 27 Jul 16:41:41 16:50:24 81° 273° (W) 16:59:04
Gurwin Techsat 1B 27 Jul 16:55:34 16:58:17 14° 257° (WSW) 17:00:59 435.225
MOZHAYETS 4 27 Jul 16:58:20 17:02:18 30° 102° (ESE) 17:06:16
STARS 27 Jul 17:04:20 17:06:19 13° 103° (ESE) 17:08:16 437.465
ITAMSAT 1 27 Jul 17:07:30 17:12:19 38° 257° (WSW) 17:17:09 435.822/435.867
Cosmos 2499 27 Jul 17:19:10 17:27:38 60° 273° (W) 17:36:20 435.465 / 435.565
AO-7 27 Jul 17:48:27 17:56:39 63° 254° (WSW) 18:04:53 29.400- 29.500
KKS-1 27 Jul 17:59:53 18:04:02 38° 282° (WNW) 18:08:11 437.445
JUGNU 27 Jul 18:00:24 18:02:02 11° 173° (S) 18:03:41 437.505
HORYU 2 27 Jul 18:00:40 18:04:21 25° 78° (ENE) 18:08:02 437.375
PCSat 27 Jul 18:17:30 18:20:20 14° 110° (ESE) 18:23:09 145.827
CUBESAT XI-V 27 Jul 18:18:06 18:21:52 24° 102° (ESE) 18:25:37 437.345
BEESAT 3 27 Jul 18:20:34 18:24:26 82° 112° (ESE) 18:28:19 437.485
DANDE 27 Jul 18:23:56 18:24:51 11° 257° (WSW) 18:25:49 436.750
BEESAT 2 27 Jul 18:27:07 18:30:48 39° 112° (ESE) 18:34:28 435.950
SRMSAT 27 Jul 18:27:49 18:28:44 10° 184° (S) 18:29:39 437.500
RS-15 27 Jul 18:34:45 18:46:52 67° 69° (ENE) 18:58:25 29.354- 29.394
BRITE-PL 27 Jul 18:35:31 18:36:29 11° 80° (E) 18:37:26 437.365/2234.400
MOZHAYETS 4 27 Jul 18:37:27 18:39:12 12° 282° (WNW) 18:40:56
STARS 27 Jul 18:38:39 18:42:23 27° 282° (WNW) 18:46:07 437.465
CUTE-I 27 Jul 18:50:09 18:51:46 11° 77° (ENE) 18:53:22 437.470
NOAA 15 27 Jul 19:07:00 19:11:29 29° 77° (ENE) 19:15:56 137.62
